• In Uzbekistan
  • List of Countries
  • For 7 days
  • Water Temperature
  • Satellite Maps
  • Weather Map
  • Weather Widgets
  • user-avatar
    Login

    Hourly Weather Abyzovo

    Today, 25 May, Friday

    Time Temperature Precipitation Wind Pressure Humidity
    00:00 +14°C° 0 mm 2 mps 748 mmHg 89%
    01:00 +14°C° 0 mm 2 mps 748 mmHg 89%
    02:00 +13°C° 0.2 mm 2 mps 748 mmHg 88%
    03:00 +13°C° 0.2 mm 2 mps 748 mmHg 87%
    04:00 +11°C° 0 mm 3 mps 748 mmHg 89%
    05:00 +10°C° 0.4 mm 3 mps 747 mmHg 89%
    06:00 +10°C° 0.4 mm 3 mps 747 mmHg 89%
    07:00 +9°C° 0.4 mm 3 mps 747 mmHg 89%
    08:00 +10°C° 0.1 mm 3 mps 747 mmHg 83%
    09:00 +10°C° 0.1 mm 3 mps 747 mmHg 78%
    10:00 +10°C° 0.1 mm 3 mps 747 mmHg 72%
    11:00 +12°C° 0 mm 3 mps 747 mmHg 64%
    12:00 +13°C° 0 mm 3 mps 747 mmHg 55%
    13:00 +14°C° 0 mm 4 mps 747 mmHg 46%
    14:00 +14°C° 0 mm 4 mps 747 mmHg 44%
    15:00 +14°C° 0 mm 5 mps 747 mmHg 42%
    16:00 +14°C° 0 mm 5 mps 747 mmHg 41%
    17:00 +13°C° 0 mm 5 mps 747 mmHg 43%
    18:00 +12°C° 0 mm 5 mps 747 mmHg 46%
    19:00 +10°C° 0 mm 5 mps 748 mmHg 49%
    20:00 +10°C° 0 mm 4 mps 748 mmHg 51%
    21:00 +7°C° 0 mm 4 mps 748 mmHg 53%
    22:00 +6°C° 0 mm 4 mps 749 mmHg 55%
    23:00 +6°C° 0 mm 4 mps 749 mmHg 56%

    Tomorrow, 26 May, Saturday

    Time Temperature Precipitation Wind Pressure Humidity
    00:00 +6°C° 0 mm 4 mps 750 mmHg 57%
    01:00 +6°C° 0 mm 4 mps 750 mmHg 58%
    02:00 +5°C° 0 mm 4 mps 750 mmHg 60%
    03:00 +4°C° 0 mm 4 mps 751 mmHg 62%
    04:00 +3°C° 0 mm 4 mps 751 mmHg 64%
    05:00 +3°C° 0 mm 5 mps 752 mmHg 61%
    06:00 +5°C° 0 mm 5 mps 752 mmHg 59%
    07:00 +5°C° 0 mm 5 mps 752 mmHg 56%
    08:00 +7°C° 0 mm 5 mps 753 mmHg 50%
    09:00 +8°C° 0 mm 6 mps 753 mmHg 45%
    10:00 +9°C° 0 mm 6 mps 753 mmHg 40%
    11:00 +9°C° 0 mm 6 mps 754 mmHg 39%
    12:00 +10°C° 0 mm 6 mps 754 mmHg 37%
    13:00 +11°C° 0 mm 6 mps 754 mmHg 35%
    14:00 +11°C° 0 mm 6 mps 754 mmHg 35%
    15:00 +11°C° 0 mm 6 mps 754 mmHg 35%
    16:00 +11°C° 0 mm 6 mps 755 mmHg 34%
    17:00 +12°C° 0 mm 5 mps 755 mmHg 38%
    18:00 +11°C° 0 mm 4 mps 755 mmHg 42%
    19:00 +11°C° 0 mm 3 mps 755 mmHg 46%
    20:00 +9°C° 0 mm 3 mps 755 mmHg 51%
    21:00 +7°C° 0 mm 2 mps 756 mmHg 55%
    22:00 +6°C° 0 mm 2 mps 756 mmHg 60%
    23:00 +6°C° 0 mm 1 mps 756 mmHg 62%

    Day after tomorrow, 27 May, Sunday

    Time Temperature Precipitation Wind Pressure Humidity
    00:00 +5°C° 0 mm 1 mps 756 mmHg 64%
    01:00 +5°C° 0 mm 1 mps 756 mmHg 66%
    02:00 +5°C° 0 mm 1 mps 756 mmHg 68%
    03:00 +4°C° 0 mm 1 mps 756 mmHg 69%
    04:00 +3°C° 0 mm 2 mps 755 mmHg 70%
    05:00 +5°C° 0 mm 2 mps 755 mmHg 66%
    06:00 +7°C° 0 mm 3 mps 755 mmHg 61%
    07:00 +8°C° 0 mm 4 mps 755 mmHg 57%
    08:00 +10°C° 0 mm 5 mps 754 mmHg 55%
    09:00 +11°C° 0 mm 6 mps 753 mmHg 53%
    10:00 +12°C° 0 mm 7 mps 753 mmHg 52%
    11:00 +15°C° 0 mm 7 mps 752 mmHg 52%
    12:00 +16°C° 0 mm 7 mps 751 mmHg 52%
    13:00 +18°C° 0 mm 7 mps 750 mmHg 52%
    14:00 +18°C° 0.4 mm 7 mps 749 mmHg 57%
    15:00 +18°C° 0.4 mm 8 mps 748 mmHg 62%
    16:00 +18°C° 0.4 mm 8 mps 747 mmHg 68%
    17:00 +17°C° 1.1 mm 7 mps 747 mmHg 74%
    18:00 +16°C° 1.1 mm 6 mps 746 mmHg 81%
    19:00 +14°C° 1.1 mm 6 mps 746 mmHg 87%
    20:00 +14°C° 1.1 mm 5 mps 745 mmHg 90%
    21:00 +13°C° 1.1 mm 5 mps 745 mmHg 93%
    22:00 +13°C° 1.1 mm 4 mps 744 mmHg 95%
    23:00 +13°C° 1 mm 5 mps 743 mmHg 95%

    28 May, Monday

    Time Temperature Precipitation Wind Pressure Humidity
    00:00 +13°C° 1 mm 5 mps 742 mmHg 95%
    01:00 +13°C° 1 mm 5 mps 741 mmHg 95%
    02:00 +10°C° 2.4 mm 5 mps 741 mmHg 94%
    03:00 +8°C° 2.4 mm 5 mps 741 mmHg 92%
    04:00 +6°C° 2.4 mm 5 mps 740 mmHg 91%
    05:00 +6°C° 0.7 mm 5 mps 741 mmHg 91%
    06:00 +6°C° 0.7 mm 5 mps 742 mmHg 91%
    07:00 +6°C° 0.7 mm 4 mps 742 mmHg 91%
    08:00 +7°C° 0.3 mm 5 mps 743 mmHg 84%
    09:00 +8°C° 0.3 mm 5 mps 743 mmHg 78%
    10:00 +8°C° 0.3 mm 6 mps 744 mmHg 72%
    11:00 +9°C° 0.1 mm 6 mps 744 mmHg 64%
    12:00 +9°C° 0.1 mm 7 mps 745 mmHg 56%
    13:00 +10°C° 0.1 mm 7 mps 745 mmHg 48%
    14:00 +9°C° 0.1 mm 7 mps 745 mmHg 49%
    15:00 +9°C° 0.1 mm 7 mps 745 mmHg 50%
    16:00 +9°C° 0.1 mm 6 mps 746 mmHg 51%
    17:00 +8°C° 0.2 mm 6 mps 746 mmHg 56%
    18:00 +7°C° 0.2 mm 5 mps 746 mmHg 60%
    19:00 +6°C° 0.2 mm 4 mps 747 mmHg 65%
    20:00 +5°C° 0 mm 4 mps 747 mmHg 68%
    21:00 +4°C° 0 mm 3 mps 747 mmHg 72%
    22:00 +3°C° 0 mm 3 mps 748 mmHg 76%
    23:00 +2°C° 0 mm 3 mps 748 mmHg 77%

    29 May, Tuesday

    Time Temperature Precipitation Wind Pressure Humidity
    00:00 +2°C° 0 mm 3 mps 748 mmHg 78%
    01:00 +1°C° 0 mm 3 mps 748 mmHg 80%
    02:00 +1°C° 0 mm 3 mps 748 mmHg 81%
    03:00 +1°C° 0 mm 3 mps 748 mmHg 83%
    04:00 0°C° 0 mm 3 mps 748 mmHg 85%
    05:00 +2°C° 0 mm 3 mps 748 mmHg 79%
    06:00 +3°C° 0 mm 4 mps 748 mmHg 73%
    07:00 +4°C° 0 mm 4 mps 748 mmHg 67%
    08:00 +5°C° 0.2 mm 4 mps 748 mmHg 63%
    09:00 +6°C° 0.2 mm 5 mps 748 mmHg 59%
    10:00 +7°C° 0.2 mm 5 mps 747 mmHg 56%
    11:00 +7°C° 0.3 mm 5 mps 747 mmHg 56%
    12:00 +7°C° 0.3 mm 5 mps 747 mmHg 56%
    13:00 +8°C° 0.3 mm 5 mps 747 mmHg 56%
    14:00 +8°C° 0.3 mm 5 mps 747 mmHg 56%
    15:00 +8°C° 0.3 mm 5 mps 747 mmHg 57%
    16:00 +8°C° 0.3 mm 5 mps 747 mmHg 57%
    17:00 +7°C° 0.1 mm 5 mps 747 mmHg 58%
    18:00 +7°C° 0.1 mm 4 mps 747 mmHg 59%
    19:00 +8°C° 0.1 mm 3 mps 747 mmHg 60%
    20:00 +5°C° 0 mm 3 mps 748 mmHg 65%
    21:00 +3°C° 0 mm 3 mps 748 mmHg 70%
    22:00 +2°C° 0 mm 2 mps 748 mmHg 75%
    23:00 +2°C° 0 mm 2 mps 748 mmHg 77%

    30 May, Wednesday

    Time Temperature Precipitation Wind Pressure Humidity
    00:00 +1°C° 0 mm 2 mps 748 mmHg 80%
    01:00 -1°C° 0 mm 2 mps 748 mmHg 83%
    02:00 +1°C° 0 mm 1 mps 748 mmHg 84%
    03:00 +1°C° 0 mm 1 mps 748 mmHg 84%
    04:00 0°C° 0 mm 1 mps 748 mmHg 85%
    05:00 +3°C° 0 mm 1 mps 747 mmHg 76%
    06:00 +5°C° 0 mm 1 mps 747 mmHg 67%
    07:00 +7°C° 0 mm 1 mps 747 mmHg 58%
    08:00 +7°C° 0 mm 2 mps 746 mmHg 55%
    09:00 +8°C° 0 mm 3 mps 746 mmHg 52%
    10:00 +10°C° 0 mm 4 mps 745 mmHg 48%
    11:00 +8°C° 0.4 mm 4 mps 744 mmHg 56%
    12:00 +8°C° 0.4 mm 5 mps 743 mmHg 64%
    13:00 +7°C° 0.4 mm 5 mps 742 mmHg 73%
    14:00 +5°C° 1.6 mm 6 mps 741 mmHg 79%
    15:00 +4°C° 1.6 mm 6 mps 740 mmHg 85%
    16:00 +4°C° 1.6 mm 6 mps 739 mmHg 91%
    17:00 +4°C° 1.2 mm 6 mps 737 mmHg 92%
    18:00 +5°C° 1.2 mm 5 mps 736 mmHg 93%
    19:00 +5°C° 1.2 mm 5 mps 734 mmHg 94%
    20:00 +5°C° 0.2 mm 4 mps 734 mmHg 95%
    21:00 +7°C° 0.2 mm 3 mps 733 mmHg 97%
    22:00 +7°C° 0.2 mm 2 mps 732 mmHg 98%
    23:00 +7°C° 0.5 mm 3 mps 732 mmHg 97%
    Show more